Weather History for LGMT - May, 2013

Change the Weather History Date:

Tuesday, May 14, 2013

  Actual Average Record
Temperature  
Mean Temperature 66 °F -  
Max Temperature 71 °F 79 °F 89 °F (2007)
Min Temperature 60 °F 63 °F 55 °F (2001)
Growing Degree Days 16 (Base 50)    
Moisture  
Dew Point 58 °F    
Average Humidity 75    
Maximum Humidity 94    
Minimum Humidity 59    
Precipitation  
Precipitation 0.00 in 0.02 in - ()
Sea Level Pressure  
Sea Level Pressure 29.73 in    
Wind  
Wind Speed 4 mph ()    
Max Wind Speed 12 mph    
Max Gust Speed -    
Visibility 6.2 miles    
Events Rain    
Averages and records for this station are not official NWS values.
T = Trace of Precipitation, MM = Missing Value Source: Averaged Metar Reports

Daily Weather History Graph

Daily Weather History Graph

Search for Another Location

Airport or City:

Trip Planner

Search our weather history database for the weather conditions in past years. The results will help you decide how hot, cold, wet, or windy it might be!

Date:

Astronomy

May. 14, 2013 Rise Set
Actual Time 6:01 AM EEST 8:18 PM EEST
Civil Twilight 5:31 AM EEST 8:48 PM EEST
Nautical Twilight 4:54 AM EEST 9:25 PM EEST
Astronomical Twilight 4:14 AM EEST 10:06 PM EEST
Moon 9:23 AM EEST (5/14) 11:54 PM EEST (5/14)
Length of Visible Light 15h 17m
Length of Day
14h 17m
Waxing Crescent, 16% of the Moon is Illuminated
May 14
Waxing Crescent
May 18
First Quarter
May 25
Full
May 31
Last Quarter
Jun 8
New

Hourly Weather History & Observations

Time (EEST) Temp. Dew Point Humidity Pressure Visibility Wind Dir Wind Speed Gust Speed Precip Events Conditions
12:50 AM 60.8 °F 55.4 °F 82% 29.68 in 6.2 mi Variable 3.5 mph - N/A   Mostly Cloudy
1:50 AM 60.8 °F 57.2 °F 88% 29.68 in 6.2 mi Variable 3.5 mph - N/A   Scattered Clouds
2:50 AM 60.8 °F 57.2 °F 88% 29.68 in 6.2 mi Calm Calm - N/A   Mostly Cloudy
3:00 AM 60 °F 57 °F 85% 29.69 in 6 mi Calm Calm - -   Mostly Cloudy
3:50 AM 60.8 °F 59.0 °F 94% 29.68 in 6.2 mi Variable 2.3 mph - N/A   Mostly Cloudy
4:20 AM 60.8 °F 59.0 °F 94% 29.68 in 6.2 mi Variable 2.3 mph - N/A   Mostly Cloudy
4:50 AM 60.8 °F 57.2 °F 88% 29.68 in 6.2 mi Variable 3.5 mph - N/A   Mostly Cloudy
5:20 AM 60.8 °F 59.0 °F 94% 29.68 in 6.2 mi Calm Calm - N/A Rain Light Rain
5:50 AM 60.8 °F 59.0 °F 94% 29.68 in 6.2 mi Calm Calm - N/A Rain Light Rain
6:20 AM 60.8 °F 59.0 °F 94% 29.68 in 6.2 mi Variable 2.3 mph - N/A   Mostly Cloudy
6:50 AM 60.8 °F 59.0 °F 94% 29.68 in 6.2 mi Calm Calm - N/A   Mostly Cloudy
7:20 AM 60.8 °F 59.0 °F 94% 29.68 in 6.2 mi Calm Calm - N/A   Mostly Cloudy
7:50 AM 62.6 °F 59.0 °F 88% 29.68 in 6.2 mi Variable 2.3 mph - N/A   Scattered Clouds
8:20 AM 64.4 °F 57.2 °F 77% 29.71 in 6.2 mi Variable 2.3 mph - N/A   Scattered Clouds
8:50 AM 64.4 °F 57.2 °F 77% 29.71 in 6.2 mi Calm Calm - N/A   Scattered Clouds
9:00 AM 64 °F 58 °F 73% 29.73 in 6 mi Calm Calm - -   Partly Cloudy
9:20 AM 66.2 °F 57.2 °F 73% 29.71 in 6.2 mi Calm Calm - N/A   Scattered Clouds
9:50 AM 68.0 °F 59.0 °F 73% 29.71 in 6.2 mi Variable 2.3 mph - N/A   Scattered Clouds
10:20 AM 68.0 °F 57.2 °F 68% 29.71 in 6.2 mi Variable 3.5 mph - N/A   Scattered Clouds
10:50 AM 68.0 °F 57.2 °F 68% 29.74 in 6.2 mi North 4.6 mph - N/A   Scattered Clouds
11:20 AM 68.0 °F 57.2 °F 68% 29.74 in 6.2 mi NNE 6.9 mph - N/A   Scattered Clouds
11:50 AM 68.0 °F 57.2 °F 68% 29.74 in 6.2 mi North 9.2 mph - N/A   Scattered Clouds
12:20 PM 68.0 °F 57.2 °F 68% 29.74 in 6.2 mi North 9.2 mph - N/A   Scattered Clouds
12:50 PM 69.8 °F 55.4 °F 60% 29.74 in 6.2 mi North 9.2 mph - N/A   Scattered Clouds
1:20 PM 68.0 °F 55.4 °F 64% 29.74 in 6.2 mi North 8.1 mph - N/A   Scattered Clouds
1:50 PM 68.0 °F 57.2 °F 68% 29.74 in 6.2 mi North 10.4 mph - N/A   Scattered Clouds
2:20 PM 68.0 °F 57.2 °F 68% 29.74 in 6.2 mi North 9.2 mph - N/A   Scattered Clouds
2:50 PM 69.8 °F 57.2 °F 64% 29.74 in 6.2 mi North 5.8 mph - N/A   Mostly Cloudy
3:00 PM 69 °F 58 °F 59% 29.75 in 6 mi North 5.8 mph - -   Partly Cloudy
3:20 PM 69.8 °F 57.2 °F 64% 29.74 in 6.2 mi North 5.8 mph - N/A   Mostly Cloudy
3:50 PM 69.8 °F 59.0 °F 68% 29.74 in 6.2 mi North 9.2 mph - N/A   Mostly Cloudy
4:20 PM 69.8 °F 59.0 °F 68% 29.74 in 6.2 mi North 9.2 mph - N/A   Mostly Cloudy
4:50 PM 71.6 °F 59.0 °F 64% 29.74 in 6.2 mi North 10.4 mph - N/A   Mostly Cloudy
5:20 PM 71.6 °F 59.0 °F 64% 29.74 in 6.2 mi North 11.5 mph - N/A   Mostly Cloudy
5:50 PM 69.8 °F 57.2 °F 64% 29.74 in 6.2 mi North 10.4 mph - N/A   Mostly Cloudy
6:20 PM 69.8 °F 57.2 °F 64% 29.74 in 6.2 mi North 10.4 mph - N/A   Mostly Cloudy
6:50 PM 71.6 °F 59.0 °F 64% 29.74 in 6.2 mi North 9.2 mph - N/A   Mostly Cloudy
7:20 PM 71.6 °F 59.0 °F 64% 29.74 in 6.2 mi North 8.1 mph - N/A   Mostly Cloudy
7:50 PM 69.8 °F 59.0 °F 68% 29.77 in 6.2 mi North 8.1 mph - N/A   Scattered Clouds
8:20 PM 68.0 °F 59.0 °F 73% 29.77 in 6.2 mi North 8.1 mph - N/A   Scattered Clouds
8:50 PM 68.0 °F 59.0 °F 73% 29.77 in 6.2 mi North 5.8 mph - N/A   Scattered Clouds
9:00 PM 68 °F 58 °F 64% 29.78 in 6 mi North 5.8 mph - -   Scattered Clouds
9:20 PM 68.0 °F 59.0 °F 73% 29.77 in 6.2 mi North 5.8 mph - N/A   Scattered Clouds
9:50 PM 68.0 °F 59.0 °F 73% 29.77 in 6.2 mi NNE 5.8 mph - N/A   Scattered Clouds
10:20 PM 66.2 °F 59.0 °F 78% 29.80 in 6.2 mi NNE 6.9 mph - N/A   Scattered Clouds
10:50 PM 66.2 °F 57.2 °F 73% 29.80 in 6.2 mi NNE 4.6 mph - N/A   Scattered Clouds
11:20 PM 66.2 °F 57.2 °F 73% 29.80 in 6.2 mi NNE 4.6 mph - N/A   Scattered Clouds
11:50 PM 66.2 °F 57.2 °F 73% 29.80 in 6.2 mi NNE 5.8 mph - N/A   Partly Cloudy